Regional Weather Roundup
Issued by NWS

Home | Current Version | Previous Version | Graphics & Text | Print | Product List | Glossary Off
Versions: 1 2 3 4 5 6 7 8 9 10 11 12 13 14 15 16 17 18 19 20 21 22 23 24 25 26 27 28 29 30 31 32 33 34 35 36 37 38 39 40 41 42 43 44 45 46 47 48 49 50

000
ASUS43 KIND 281009
RWRIN

WEATHER ROUNDUP FOR INDIANA
NATIONAL WEATHER SERVICE INDIANAPOLIS IN
600 AM EDT MON JUL 28 2014

NOTE: "FAIR" INDICATES FEW OR NO CLOUDS BELOW 12,000 FEET WITH NO
SIGNIFICANT WEATHER AND/OR OBSTRUCTIONS TO VISIBILITY.

* - STATION DOES NOT REPORT WEATHER SUCH AS PRECIPITATION OR FOG.

+ - STATION NOT QUALITY CONTROLLED BY THE NATIONAL WEATHER SERVICE.
    USE DATA WITH CAUTION...ESPECIALLY DEWPOINT AND RELATIVE
    HUMIDITY OBSERVATIONS.

INZ001>003-010>013-019-020-281100-
NORTHWEST INDIANA

CITY           SKY/WX    TMP DP  RH WIND       PRES   REMARKS
GARY /AIRPORT/ PTCLDY    63  54  72 N23       29.95R
KNOX *+        CLOUDY    61  55  82 N14       29.91R
LA PORTE +     CLOUDY    60  55  83 N10G16    29.93R
MICHIGAN CITY+ CLOUDY    61  52  72 N13G22    29.93R
MONTICELLO +   CLOUDY    62  56  80 NW8G16    29.91R
RENSSELAER +   CLEAR     61  55  82 NW6       29.94R
VALPARAISO     CLOUDY    61  54  77 N9G18     29.94R

$$

LMZ046-743>745-281100-
SOUTHERN LAKE MICHIGAN

STATION/POSITION TIME  TEMP WIND        PRES
                       AIR  DIR/SP/G
                 (UTC) (F)  (DEG/KT/KT) (MB)
MICHIGAN CITY    1000   62  340/ 25/ 30   N/A

$$

INZ004-005-014>016-021>024-281100-
NORTH CENTRAL INDIANA

CITY           SKY/WX    TMP DP  RH WIND       PRES   REMARKS
GOSHEN         MOCLDY    63  59  87 NW10      29.87R
LOGANSPORT +   CLOUDY    61  54  77 NW7       29.91R
PERU/GRISSOM   CLOUDY    63  62  96 NW10      29.90R
ROCHESTER +    CLOUDY    64  59  82 NW9       29.90R
SOUTH BEND     CLOUDY    61  55  81 NW14      29.91R
WARSAW +       MOCLDY    61  59  94 NW8       29.88R

$$

INZ006>009-017-018-025>027-281100-
NORTHEAST INDIANA

CITY           SKY/WX    TMP DP  RH WIND       PRES   REMARKS
ANGOLA *+      CLOUDY    63  54  72 N7        29.84R
AUBURN +       CLOUDY    63  57  82 NW7       29.85R
FORT WAYNE     MOCLDY    62  58  86 NW7       29.86R
HUNTINGTON +   CLOUDY    62  59  88 NW3       29.87R

$$

INZ028-029-035-036-043>045-051>053-281100-
WEST CENTRAL INDIANA

CITY           SKY/WX    TMP DP  RH WIND       PRES   REMARKS
GREENCASTLE +  CLOUDY    63  55  77 NW14G21   29.93R
LAFAYETTE      PTCLDY    60  54  80 NW8       29.92R
TERRE HAUTE    CLEAR     62  59  90 NW6       29.94R

$$

INZ030>032-037>040-046>048-054>057-064-065-281100-
CENTRAL INDIANA

CITY           SKY/WX    TMP DP  RH WIND       PRES   REMARKS
CP ATTERBURY + MOCLDY    63  59  88 NW5       29.91R
INDIANAPOLIS   CLOUDY    63  57  81 NW16G23   29.89R
-EAGLE CREEK   CLOUDY    64  56  75 NW15G23   29.90R
KOKOMO *+      CLOUDY    63  57  82 NW13      29.90R
MARION +       CLOUDY    62  57  86 NW7       29.89R
MT COMFORT *+  CLOUDY    64  64 100 NW9       29.89R
SHELBYVILLE    CLOUDY    65  59  81 NW12      29.89R
ZIONSVILLE +   CLOUDY    64  56  77 NW12G18   29.91R

$$

INZ033-034-041-042-049-050-058-059-281100-
EAST CENTRAL INDIANA

CITY           SKY/WX    TMP DP  RH WIND       PRES   REMARKS
MUNCIE         CLOUDY    63  57  81 NW12      29.88R

$$

INZ060-061-067>069-081>083-085>088-281100-
SOUTHWEST INDIANA

CITY           SKY/WX    TMP DP  RH WIND       PRES   REMARKS
EVANSVILLE     CLEAR     66  59  78 W5        29.95R
WASHINGTON +   CLEAR     63  61  93 NW8       29.93R

$$

INZ062-063-066-070>080-084-089>092-281100-
SOUTH CENTRAL AND SOUTHEAST INDIANA

CITY           SKY/WX    TMP DP  RH WIND       PRES   REMARKS
BLOOMINGTON    PTCLDY    63  58  83 NW6       29.92R

$$



USA.gov is the U.S. government's official web portal to all federal, state and local government web resources and services.